Simultaneous Nadir Overpasses (SNOs) Predictions

Prediction of SNOs between GOES-15 and METOP-A Satellite Orbit:

Table of predicted SNOs for the next 14.0 days since TLE Epoch: 11/22/2013
Index Date Time (GOES-15) GOES-15 Lat,Lon METOP-A Lat,Lon Distance(km) Time Diff (sec)
1 11/23/2013 18:21:39 -0.25,-135.42 -0.70,-133.49 220.84 80
2 11/25/2013 06:43:17 0.23,-135.48 -0.37,-138.07 295.37 80
3 11/26/2013 06:19:58 0.24,-135.49 0.80,-133.08 274.26 80
4 11/27/2013 18:41:27 -0.22,-135.44 0.28,-137.63 249.35 80
5 11/28/2013 18:18:08 -0.23,-135.45 -0.88,-132.64 320.24 80
6 11/30/2013 06:39:46 0.21,-135.50 -0.16,-137.23 196.87 80
7 12/01/2013 06:16:26 0.23,-135.49 0.95,-132.23 371.81 80
8 12/02/2013 18:37:55 -0.20,-135.43 0.12,-136.77 153.67 80
9 12/03/2013 18:14:35 -0.21,-135.42 -1.05,-131.79 414.87 80
10 12/05/2013 06:36:13 0.19,-135.46 -0.04,-136.36 103.38 80
11 12/06/2013 06:12:52 0.20,-135.45 1.08,-131.36 464.55 80




NCC Satellite Simultaneous Nadir Overpasses (SNOs) Prediction Service
